Wind_Speed
5 4 4 5 6 6 7 8 8 10 12 14 15 15 14 13 13 12 10 10 11 12 13 14 16 18 19 20 21 22 22 22 23 26 29 30 29 28 28 28 30 32 34 35 36
6 6 7 6 8 8 9 10 11 12 12 12 12 11 11 12 13 12 11 11 12 14 15 17 17 19 21 22 23 23 24 26 27 30 32 33 32 32 30 32 34 35 38 40 42
7 7 8 9 10 10 11 13 13 12 12 11 11 12 12 12 11 11 13 14 15 16 18 19 20 21 23 24 25 25 26 28 31 34 35 36 37 37 38 40 41 43 44 46 47
8 8 9 10 11 12 12 12 12 12 12 12 13 14 14 14 13 14 15 16 17 18 20 21 22 25 26 26 27 28 29 31 33 37 39 41 44 45 45 47 47 50 51 52 54
9 11 11 12 11 11 10 8 9 10 11 11 14 16 17 18 17 17 19 20 21 22 23 25 27 29 31 32 33 35 37 38 40 41 43 45 47 50 51 52 55 58 60 63 64
11 11 9 8 7 7 9 10 11 13 14 16 16 16 17 18 19 20 21 22 23 24 26 28 30 32 35 37 39 41 43 45 47 49 52 54 56 58 59 59 63 65 68 70 72
8 6 6 4 5 8 10 12 14 16 18 19 19 20 20 19 19 19 20 22 24 26 28 30 32 34 36 38 40 43 46 48 51 54 58 62 63 65 66 69 70 73 75 77 79
5 4 5 7 9 11 13 16 18 20 22 22 22 22 23 23 24 24 25 26 26 28 29 30 32 34 36 38 41 43 45 47 49 52 56 61 65 65 67 71 72 74 77 79 81
3 5 8 10 13 15 17 19 20 20 22 23 24 24 25 25 25 26 27 28 29 29 33 35 37 38 40 42 44 48 49 51 52 54 56 59 61 64 66 69 71 74 77 78 80
6 9 11 15 16 17 19 20 22 22 23 23 24 24 25 25 27 30 32 33 33 36 40 39 39 40 42 44 44 46 48 52 55 55 56 58 59 64 63 68 72 75 79 81 84
9 13 16 17 18 20 22 25 27 26 25 27 28 29 30 32 34 36 37 39 41 42 44 44 44 45 48 50 51 52 52 54 59 60 60 64 66 69 71 73 77 81 84 89 91
14 16 16 17 21 25 26 28 29 30 31 33 33 35 36 39 41 41 44 46 46 47 48 49 49 50 52 54 56 57 59 60 61 63 65 66 70 74 77 83 88 93 96 99 102
15 16 17 21 25 26 28 29 31 33 35 37 38 40 42 45 46 48 49 49 49 51 51 49 49 51 53 56 59 60 64 67 68 70 73 73 75 78 84 91 95 100 103 106 110
17 19 20 22 25 29 32 35 37 38 41 44 45 46 47 48 50 51 50 51 52 49 47 47 49 51 52 55 60 64 67 71 73 78 80 84 84 86 95 101 106 109 112 115 118
21 25 29 31 35 37 39 42 45 47 47 49 51 51 49 48 49 51 51 48 48 50 50 49 51 54 58 64 67 69 72 76 79 84 84 86 91 89 96 103 113 119 122 123 124
23 27 31 34 37 38 41 43 46 48 51 50 50 49 46 45 45 44 44 44 43 45 47 48 52 58 61 65 68 73 76 81 83 91 93 97 98 96 108 119 122 127 128 130 132
26 28 32 35 39 43 47 48 49 50 51 48 46 46 45 41 41 43 44 46 48 48 48 50 54 61 68 74 79 85 90 92 90 94 99 106 110 111 121 124 132 134 133 135 136
32 36 37 40 44 48 51 52 50 51 50 49 47 44 44 43 45 45 46 47 50 50 47 53 60 67 70 69 73 73 77 91 104 107 104 98 110 119 129 133 136 136 135 132 130
36 40 44 48 50 51 53 53 52 53 50 47 46 46 47 46 47 50 51 53 55 58 64 66 70 76 81 84 87 89 93 97 102 100 106 109 110 109 123 127 129 130 124 118 114
44 46 49 51 50 53 55 54 54 54 51 47 47 48 49 49 55 54 53 55 58 65 66 72 81 86 90 93 97 96 103 108 114 119 118 120 121 121 124 120 113 113 107 103 98
47 48 52 53 53 54 54 54 55 55 52 52 50 52 54 56 59 63 68 69 68 70 79 88 91 96 102 101 104 105 116 123 125 129 129 124 114 124 117 114 107 100 96 93 86
50 53 57 55 56 58 56 59 58 60 59 57 57 58 59 59 59 62 68 74 78 81 85 88 94 96 98 100 110 106 120 130 133 131 122 122 113 118 111 104 97 92 89 83 77
54 58 57 60 60 58 61 65 67 68 65 62 62 63 66 67 69 73 75 83 83 82 85 87 95 94 100 105 114 121 129 139 140 131 121 118 114 110 105 99 97 90 85 78 72
59 61 57 59 57 60 59 63 67 69 67 66 68 72 73 76 77 78 80 86 88 84 85 92 102 106 109 112 121 128 134 139 138 129 119 116 111 103 103 98 92 87 80 73 68
60 62 58 57 62 59 65 67 72 68 71 72 72 75 76 78 80 84 86 91 86 86 89 100 107 109 113 119 126 135 135 134 135 128 123 114 105 100 97 91 83 80 73 68 62
61 65 62 62 60 68 68 75 70 79 72 73 75 79 79 79 80 84 87 87 85 88 94 99 105 109 113 122 131 133 132 134 136 128 120 113 102 97 92 84 77 72 65 58 52
67 70 68 72 65 61 69 70 69 75 75 73 77 80 82 88 89 90 91 89 94 97 97 103 111 116 121 128 131 132 132 130 128 125 120 106 99 89 86 77 66 63 55 50 46
Wind_Direction
278 284 297 307 307 310 317 320 318 315 314 313 313 312 313 311 311 304 295 294 298 295 290 289 292 294 293 290 285 282 276 272 271 270 270 272 276 276 274 272 271 275 277 277 279
290 304 304 305 306 312 318 317 318 315 311 308 305 305 316 308 306 301 299 302 304 299 296 296 295 294 292 287 285 282 278 272 274 276 274 274 274 273 272 267 269 270 274 277 277
288 299 302 304 308 314 318 321 323 321 320 320 315 314 319 315 311 309 311 311 313 311 304 298 298 296 295 293 290 288 284 279 278 278 276 275 274 275 276 276 273 273 275 279 280
286 290 295 303 309 314 318 323 325 331 333 331 332 335 333 328 321 314 310 305 304 306 301 296 295 296 295 294 293 290 287 285 286 286 284 280 278 277 277 279 278 278 278 278 278
281 293 295 300 305 310 319 329 337 337 340 341 339 337 335 335 331 325 318 315 311 306 302 297 294 295 293 292 291 288 286 286 286 287 285 283 282 280 279 277 278 278 277 277 276
284 289 292 299 316 328 337 344 342 340 338 337 337 335 331 328 326 323 322 320 315 309 306 303 300 297 295 292 289 287 284 284 282 282 280 280 279 280 280 279 278 278 278 278 278
281 280 292 304 327 333 335 335 337 340 340 336 335 336 337 335 329 324 319 315 311 309 309 308 307 304 301 300 297 294 292 289 287 284 282 280 280 280 281 280 279 279 278 277 277
280 280 294 315 327 334 341 343 340 338 335 334 335 334 336 333 330 327 325 320 318 316 313 311 308 306 304 301 298 296 293 290 288 286 284 284 284 283 283 282 282 280 280 279 278
278 297 315 328 338 338 337 334 334 334 330 325 325 325 325 324 324 323 321 320 315 314 312 309 305 301 299 298 297 297 295 294 291 289 287 285 286 285 285 284 284 283 282 282 281
308 325 329 331 330 328 327 326 326 325 324 319 318 319 318 317 317 316 315 314 311 307 306 303 298 297 298 296 294 291 290 288 284 284 285 285 286 284 284 283 282 281 280 279 277
318 323 323 323 321 319 320 326 322 321 322 315 313 313 314 316 315 313 312 311 308 305 303 300 296 296 296 295 294 295 291 288 286 287 287 288 287 287 286 285 284 282 280 279 278
320 319 316 316 310 313 317 317 316 318 318 318 315 314 312 312 312 311 310 309 307 305 304 301 296 295 295 295 296 296 294 291 289 287 285 285 286 285 285 283 282 282 281 280 280
315 313 307 303 306 310 313 314 312 313 314 315 314 311 310 309 308 307 306 304 303 303 304 302 299 296 296 296 295 294 293 291 289 288 287 286 284 283 281 281 280 278 278 278 279
305 305 310 311 313 312 311 308 309 311 311 312 311 310 309 307 304 302 301 301 302 304 305 306 304 302 300 300 299 298 296 294 292 290 289 288 288 291 287 284 283 282 282 282 282
320 320 318 319 318 315 311 309 309 307 306 306 305 305 305 305 303 302 305 306 306 307 308 306 306 303 301 304 304 301 299 296 295 293 292 290 290 291 285 286 286 287 288 287 287
314 315 314 315 315 313 312 311 309 310 307 303 302 303 302 301 301 304 308 309 310 312 314 313 310 308 306 303 300 296 295 294 293 291 289 287 288 291 288 288 288 288 290 291 294
313 313 312 313 311 311 313 310 311 310 308 305 306 305 305 307 308 307 308 309 309 309 311 310 308 308 305 302 299 298 296 294 294 297 295 291 289 289 289 289 289 291 291 293 295
311 313 311 311 312 312 315 315 313 311 311 311 309 308 309 308 311 306 308 310 312 312 310 307 307 304 306 307 307 304 306 299 292 289 290 293 290 291 291 290 291 293 295 296 296
311 311 313 315 314 313 318 319 315 313 313 310 310 310 311 311 313 312 308 308 309 309 308 306 306 308 307 304 307 316 313 310 308 300 293 294 294 301 293 295 298 300 301 302 300
309 313 315 314 317 317 318 317 317 317 314 309 309 308 311 314 316 316 315 312 309 312 311 307 309 313 313 312 314 317 318 318 313 310 307 307 307 307 302 302 303 304 305 304 302
308 312 315 319 317 314 318 319 319 320 316 312 309 311 311 311 314 315 315 314 314 309 307 309 311 312 314 317 319 324 323 321 314 311 309 306 314 305 306 307 306 308 307 304 302
310 311 316 318 318 319 317 320 321 322 320 316 312 312 312 311 311 314 315 317 315 311 312 314 315 316 318 315 319 323 321 316 315 313 315 311 314 310 310 311 311 310 308 304 301
311 312 313 317 319 317 319 321 319 321 319 319 316 317 315 314 314 315 317 319 315 311 315 314 318 321 322 322 322 326 318 316 315 315 316 317 315 314 315 315 313 312 309 307 305
312 314 313 314 314 318 322 326 323 322 319 317 320 323 322 320 319 318 317 318 313 310 312 313 320 321 327 325 322 318 316 313 314 317 321 320 317 317 316 315 313 311 309 308 307
311 309 306 310 313 310 310 310 321 322 320 318 320 323 323 321 319 318 317 317 317 316 312 311 314 321 329 323 317 315 315 313 314 319 323 322 318 318 316 313 312 310 310 310 305
310 310 307 305 308 306 307 310 312 321 323 320 318 316 316 318 318 319 316 317 317 315 313 320 321 328 325 318 315 316 313 313 317 318 324 320 318 317 314 312 312 309 310 306 300
300 302 308 306 301 306 308 308 313 316 315 320 317 315 312 310 310 312 317 320 325 321 319 320 326 323 320 317 317 316 314 316 320 321 322 318 316 315 311 311 313 310 307 302 303
Height
10904 10903 10902 10902 10901 10901 10901 10900 10900 10900 10899 10897 10896 10894 10893 10892 10891 10891 10891 10891 10890 10889 10888 10887 10886 10885 10884 10883 10881 10880 10878 10876 10875 10874 10873 10872 10871 10870 10868 10866 10860 10858 10856 10853 10851
10902 10902 10901 10900 10900 10900 10900 10899 10900 10899 10898 10896 10895 10893 10892 10890 10889 10889 10888 10887 10886 10885 10884 10883 10882 10880 10879 10878 10876 10875 10873 10871 10870 10867 10865 10864 10863 10862 10861 10858 10855 10852 10849 10846 10843
10900 10899 10899 10899 10898 10898 10898 10898 10898 10897 10896 10894 10893 10891 10889 10888 10887 10886 10886 10884 10883 10881 10880 10878 10877 10876 10875 10873 10872 10870 10868 10866 10864 10861 10859 10857 10855 10854 10853 10851 10849 10846 10843 10838 10834
10898 10898 10898 10898 10897 10897 10897 10896 10895 10894 10893 10892 10890 10889 10887 10886 10884 10883 10882 10881 10879 10878 10877 10875 10874 10872 10871 10869 10868 10866 10863 10861 10858 10855 10853 10851 10849 10846 10844 10841 10840 10835 10831 10827 10823
10897 10897 10896 10897 10896 10895 10895 10894 10893 10892 10891 10890 10889 10887 10885 10884 10882 10881 10879 10878 10877 10875 10873 10871 10869 10868 10866 10863 10862 10859 10857 10854 10851 10848 10844 10840 10837 10834 10832 10830 10826 10821 10816 10811 10807
10896 10896 10895 10895 10894 10894 10893 10893 10892 10890 10889 10888 10886 10885 10883 10881 10879 10878 10876 10874 10872 10870 10868 10865 10863 10860 10858 10855 10853 10851 10848 10845 10841 10837 10832 10827 10823 10820 10818 10818 10812 10807 10801 10796 10791
10894 10894 10893 10893 10893 10893 10893 10892 10890 10888 10886 10884 10883 10881 10879 10878 10876 10873 10872 10869 10867 10864 10862 10859 10856 10853 10850 10847 10843 10840 10837 10834 10830 10827 10820 10812 10809 10805 10803 10797 10795 10790 10784 10778 10772
10892 10892 10892 10893 10893 10892 10891 10889 10888 10886 10883 10881 10880 10877 10875 10874 10871 10869 10867 10865 10862 10860 10857 10853 10849 10845 10842 10837 10832 10828 10824 10820 10816 10811 10805 10799 10792 10790 10785 10776 10771 10766 10760 10754 10750
10890 10891 10891 10891 10890 10889 10888 10886 10885 10883 10880 10878 10876 10874 10872 10869 10867 10864 10862 10859 10856 10853 10850 10846 10842 10837 10832 10828 10823 10817 10813 10807 10802 10797 10791 10784 10777 10770 10766 10758 10751 10743 10736 10731 10726
10889 10889 10888 10887 10886 10886 10884 10883 10882 10879 10877 10874 10871 10869 10866 10864 10861 10858 10855 10853 10850 10846 10842 10838 10833 10827 10822 10816 10811 10804 10798 10790 10784 10780 10772 10766 10761 10752 10749 10739 10731 10723 10715 10709 10703
10886 10886 10885 10884 10883 10882 10880 10879 10877 10875 10872 10869 10867 10864 10862 10859 10856 10852 10849 10845 10842 10838 10833 10829 10823 10818 10811 10805 10799 10793 10787 10781 10772 10767 10763 10753 10744 10736 10726 10717 10706 10698 10691 10683 10677
10883 10883 10883 10881 10879 10878 10876 10874 10870 10868 10866 10863 10860 10858 10854 10851 10848 10844 10840 10835 10831 10827 10822 10817 10811 10806 10798 10792 10787 10782 10775 10768 10762 10755 10747 10742 10732 10723 10713 10698 10687 10676 10667 10658 10649
10880 10879 10879 10877 10875 10874 10870 10868 10865 10862 10859 10856 10853 10850 10846 10842 10837 10833 10828 10823 10819 10814 10808 10803 10798 10792 10787 10779 10772 10767 10759 10752 10745 10737 10726 10725 10714 10706 10691 10677 10664 10651 10640 10631 10624
10876 10875 10874 10872 10870 10867 10864 10860 10858 10855 10852 10848 10844 10840 10836 10831 10826 10822 10816 10812 10806 10802 10797 10791 10784 10777 10770 10765 10758 10752 10744 10735 10726 10715 10708 10697 10690 10677 10664 10649 10634 10622 10611 10601 10591
10872 10870 10867 10866 10863 10860 10856 10853 10849 10846 10843 10838 10833 10828 10824 10821 10815 10809 10804 10800 10794 10789 10785 10780 10774 10766 10759 10752 10744 10736 10726 10714 10703 10689 10681 10669 10659 10647 10632 10618 10599 10587 10576 10567 10556
10866 10864 10861 10859 10856 10852 10848 10844 10840 10836 10831 10827 10821 10817 10813 10809 10804 10798 10793 10787 10782 10777 10771 10767 10761 10752 10742 10734 10725 10714 10704 10692 10683 10664 10654 10642 10634 10632 10601 10579 10568 10552 10544 10534 10521
10860 10858 10855 10852 10848 10844 10840 10835 10831 10825 10820 10815 10810 10806 10802 10798 10792 10787 10781 10774 10772 10769 10762 10754 10745 10737 10726 10716 10708 10696 10680 10666 10661 10644 10629 10615 10604 10593 10568 10550 10530 10520 10512 10497 10482
10852 10850 10847 10844 10840 10835 10831 10826 10821 10816 10810 10805 10800 10795 10792 10788 10782 10776 10770 10765 10760 10754 10747 10738 10732 10720 10709 10699 10686 10673 10656 10635 10618 10613 10607 10602 10576 10552 10534 10516 10502 10490 10475 10465 10448
10844 10841 10838 10834 10830 10826 10822 10816 10810 10805 10801 10795 10791 10785 10781 10777 10773 10767 10760 10755 10749 10741 10733 10725 10720 10704 10689 10677 10663 10642 10626 10607 10586 10584 10568 10553 10538 10535 10508 10488 10469 10451 10431 10417 10401
10834 10832 10829 10825 10821 10816 10811 10806 10800 10795 10790 10785 10781 10776 10772 10767 10761 10755 10750 10743 10736 10728 10718 10708 10699 10686 10668 10655 10638 10622 10600 10573 10552 10535 10525 10518 10507 10492 10468 10457 10440 10421 10398 10382 10368
10824 10823 10819 10815 10811 10806 10801 10795 10789 10785 10780 10775 10771 10766 10762 10757 10749 10741 10734 10728 10720 10712 10702 10688 10678 10659 10644 10628 10612 10589 10568 10545 10533 10515 10495 10480 10485 10441 10434 10415 10398 10389 10370 10354 10340
10814 10811 10809 10804 10800 10795 10790 10784 10779 10773 10769 10763 10759 10754 10749 10744 10736 10727 10719 10709 10701 10692 10681 10670 10654 10640 10622 10603 10591 10568 10541 10517 10496 10483 10467 10440 10445 10404 10398 10380 10362 10353 10340 10329 10316
10803 10800 10798 10792 10788 10783 10778 10773 10768 10762 10757 10752 10747 10740 10733 10727 10721 10711 10702 10693 10682 10671 10660 10648 10632 10615 10604 10576 10558 10543 10511 10477 10453 10442 10434 10406 10393 10375 10358 10343 10327 10319 10308 10300 10290
10792 10788 10785 10781 10777 10773 10767 10761 10756 10749 10744 10738 10732 10724 10715 10707 10699 10691 10684 10675 10663 10651 10639 10624 10613 10595 10575 10553 10528 10511 10491 10457 10428 10411 10400 10380 10359 10349 10330 10316 10305 10290 10283 10275 10267
10782 10778 10775 10770 10766 10762 10756 10750 10744 10737 10728 10723 10716 10707 10700 10693 10685 10675 10666 10656 10642 10628 10616 10604 10594 10573 10551 10528 10508 10482 10455 10436 10404 10386 10369 10357 10338 10322 10306 10294 10284 10271 10263 10255 10246
10771 10768 10764 10760 10755 10750 10744 10738 10733 10724 10715 10708 10701 10694 10688 10678 10670 10660 10649 10637 10626 10612 10597 10581 10567 10548 10537 10509 10482 10462 10432 10407 10386 10365 10349 10328 10316 10298 10283 10273 10267 10254 10248 10238 10230
10759 10757 10754 10749 10743 10738 10731 10726 10719 10712 10704 10697 10690 10681 10671 10662 10653 10643 10633 10620 10604 10590 10573 10554 10536 10524 10515 10489 10459 10429 10409 10387 10364 10337 10324 10309 10295 10282 10263 10254 10251 10237 10231 10223 10218